KM4RT-13 Weather Reports


Display with metric or nautical units.
time (UTC)temp
F
wind
direction
speed
MPH
gust
MPH
rain 1hr
in
rain 24hr
in
rain mn
in
humidity
%
barometer
mb
20260906120303 75 108 2.0 2.0 0.00 0.00 0.00 99 1010.8
20260906115759 75 105 1.0 2.0 0.00 0.00 0.00 99 1010.8
20260906115254 75 31 0.0 0.0 0.00 0.00 0.00 99 1010.5
20260906114753 75 21 0.0 1.0 0.00 0.00 0.00 99 1010.5
20260906114248 75 355 0.0 0.0 0.00 0.00 0.00 99 1010.3
20260906113744 75 340 1.0 1.0 0.00 0.00 0.00 99 1010.3
20260906113243 75 355 0.0 0.0 0.00 0.00 0.00 99 1010.1
20260906112737 75 330 0.0 0.0 0.00 0.00 0.00 99 1010.1
20260906112233 75 337 0.0 1.0 0.00 0.00 0.00 99 1010.1
20260906111733 75 37 0.0 0.0 0.00 0.00 0.00 99 1010.1
20260906111228 75 37 0.0 0.0 0.00 0.00 0.00 99 1009.7
20260906110722 75 37 0.0 0.0 0.00 0.00 0.00 99 1009.5
20260906110212 75 37 1.0 1.0 0.00 0.00 0.00 99 1009.5
20260906105706 75 31 1.0 1.0 0.00 0.00 0.00 99 1009.3
20260906105202 75 25 2.0 3.0 0.00 0.00 0.00 99 1009.2
20260906104701 75 16 1.0 1.0 0.00 0.00 0.00 99 1009.4
20260906104200 75 5 1.0 1.0 0.00 0.00 0.00 99 1009.2
20260906103658 76 4 0.0 0.0 0.00 0.00 0.00 99 1009.3
20260906103153 76 9 0.0 1.0 0.00 0.00 0.00 99 1009.3
20260906102648 76 2 0.0 0.0 0.00 0.00 0.00 99 1009.2
20260906102143 76 2 0.0 0.0 0.00 0.00 0.00 99 1009.3
20260906101642 76 1 0.0 0.0 0.00 0.00 0.00 99 1009.4
20260906101137 76 349 0.0 0.0 0.00 0.00 0.00 99 1009.3
20260906100633 76 18 0.0 0.0 0.00 0.00 0.00 99 1009.2
20260906100127 76 348 0.0 0.0 0.00 0.00 0.00 99 1009.2
20260906095622 76 5 0.0 0.0 0.00 0.00 0.00 99 1009.4
20260906095118 76 5 0.0 0.0 0.00 0.00 0.00 99 1009.4
20260906094617 76 5 0.0 0.0 0.00 0.00 0.00 99 1009.3
20260906094113 76 5 0.0 0.0 0.00 0.00 0.00 99 1009.7
20260906093609 76 5 0.0 0.0 0.00 0.00 0.00 99 1009.5
20260906093103 76 4 0.0 0.0 0.00 0.00 0.00 99 1009.5
20260906092558 76 4 0.0 0.0 0.00 0.00 0.00 99 1009.4
20260906092053 76 21 0.0 0.0 0.00 0.00 0.00 99 1009.3
20260906091549 76 21 1.0 1.0 0.00 0.00 0.00 99 1009.3
20260906091045 76 15 0.0 1.0 0.00 0.00 0.00 99 1009.3
20260906090545 76 18 3.0 3.0 0.00 0.00 0.00 99 1009.4
20260906090040 76 9 1.0 1.0 0.00 0.00 0.00 99 1009.3
20260906085539 76 208 0.0 0.0 0.00 0.00 0.00 99 1009.3
20260906085038 76 208 0.0 0.0 0.00 0.00 0.00 99 1009.3
20260906084533 76 208 0.0 0.0 0.00 0.00 0.00 99 1009.3
20260906084032 76 208 0.0 0.0 0.00 0.00 0.00 99 1009.2
20260906083528 76 208 0.0 1.0 0.00 0.00 0.00 99 1009.0
20260906083028 76 244 0.0 1.0 0.00 0.00 0.00 99 1009.0
20260906082523 76 244 0.0 0.0 0.00 0.00 0.00 99 1009.2
20260906082019 76 208 2.0 3.0 0.00 0.00 0.00 99 1008.9
20260906081514 76 156 0.0 0.0 0.00 0.00 0.00 99 1009.1
20260906081010 76 181 1.0 1.0 0.00 0.00 0.00 99 1009.1
20260906080506 76 328 0.0 0.0 0.00 0.00 0.00 99 1009.1
20260906080002 76 341 0.0 0.0 0.00 0.00 0.00 99 1008.9
20260906075456 76 355 0.0 0.0 0.00 0.00 0.00 99 1009.1
20260906074950 76 77 0.0 0.0 0.00 0.00 0.00 99 1008.9
20260906074445 76 110 0.0 0.0 0.00 0.00 0.00 99 1009.0
20260906073943 76 110 0.0 0.0 0.00 0.00 0.00 99 1009.1
20260906073439 76 110 0.0 0.0 0.00 0.00 0.00 99 1008.7
20260906072935 76 119 0.0 1.0 0.00 0.00 0.00 99 1009.0
20260906072430 76 166 1.0 1.0 0.00 0.00 0.00 99 1009.1
20260906071926 77 187 2.0 2.0 0.00 0.00 0.00 99 1008.8
20260906071422 77 8 0.0 0.0 0.00 0.00 0.00 99 1008.9
20260906070917 77 8 0.0 0.0 0.00 0.00 0.00 99 1009.0
20260906070407 77 8 0.0 0.0 0.00 0.00 0.00 99 1009.0
20260906065903 77 8 0.0 0.0 0.00 0.00 0.00 99 1008.7
20260906065356 77 8 0.0 0.0 0.00 0.00 0.00 99 1008.8
20260906064852 77 8 0.0 0.0 0.00 0.00 0.00 99 1008.8
20260906064348 77 8 0.0 0.0 0.00 0.00 0.00 99 1009.1
20260906063843 77 8 0.0 0.0 0.00 0.00 0.00 99 1009.0
20260906063338 77 8 0.0 0.0 0.00 0.00 0.00 99 1008.8
20260906062833 77 8 0.0 0.0 0.00 0.00 0.00 99 1009.1
20260906062332 77 8 0.0 0.0 0.00 0.00 0.00 99 1008.9
20260906061828 77 8 0.0 0.0 0.00 0.00 0.00 99 1008.9
20260906061324 77 8 0.0 0.0 0.00 0.00 0.00 99 1009.1
20260906060819 77 8 0.0 0.0 0.00 0.00 0.00 99 1009.2
20260906060317 77 8 0.0 0.0 0.00 0.00 0.00 99 1009.2
20260906055812 77 8 0.0 0.0 0.00 0.00 0.00 99 1009.2
20260906055308 77 8 0.0 0.0 0.00 0.00 0.00 99 1009.3
20260906054803 77 8 0.0 0.0 0.00 0.00 0.00 99 1009.3
20260906054258 77 8 0.0 0.0 0.00 0.00 0.00 99 1009.3
20260906053754 78 8 0.0 0.0 0.00 0.00 0.00 99 1009.3
20260906053250 78 8 0.0 0.0 0.00 0.00 0.00 99 1009.2
20260906052745 78 8 0.0 0.0 0.00 0.00 0.00 99 1009.4
20260906052241 77 8 0.0 0.0 0.00 0.00 0.00 99 1009.5
20260906051738 77 8 0.0 0.0 0.00 0.00 0.00 99 1009.3
20260906051237 77 8 0.0 0.0 0.00 0.00 0.00 99 1009.7
20260906050733 77 8 0.0 0.0 0.00 0.00 0.00 99 1009.4
20260906050227 77 8 0.0 0.0 0.00 0.00 0.00 99 1009.2
20260906045726 77 8 0.0 0.0 0.00 0.22 0.22 99 1009.4
20260906045216 77 8 0.0 1.0 0.00 0.22 0.22 99 1009.3
20260906044711 78 8 1.0 1.0 0.00 0.22 0.22 99 1009.1
20260906044206 77 9 0.0 0.0 0.00 0.22 0.22 99 1009.4
20260906043702 78 9 0.0 1.0 0.00 0.22 0.22 99 1009.2
20260906043157 78 9 0.0 1.0 0.00 0.22 0.22 99 1009.3
20260906042651 78 9 0.0 0.0 0.00 0.22 0.22 99 1009.1
20260906042145 78 9 0.0 0.0 0.00 0.22 0.22 99 1009.3
20260906041641 78 8 0.0 0.0 0.00 0.22 0.22 99 1009.2
20260906041136 79 8 0.0 0.0 0.00 0.22 0.22 98 1009.1
20260906040631 79 9 1.0 2.0 0.00 0.22 0.22 97 1009.2
20260906040127 79 351 1.0 1.0 0.00 0.22 0.22 96 1009.2
20260906035622 79 349 0.0 0.0 0.00 0.22 0.22 96 1009.0
20260906035117 79 349 0.0 0.0 0.00 0.22 0.22 96 1009.3
20260906034612 79 349 0.0 0.0 0.00 0.22 0.22 96 1009.3
20260906034106 79 349 0.0 0.0 0.00 0.22 0.22 97 1009.0
20260906033601 79 349 0.0 0.0 0.00 0.22 0.22 97 1009.1
20260906033057 79 349 0.0 0.0 0.00 0.22 0.22 96 1009.3
20260906032554 79 349 0.0 0.0 0.00 0.22 0.22 96 1009.4
20260906032048 79 349 0.0 0.0 0.00 0.22 0.22 96 1009.4
20260906031544 80 349 0.0 0.0 0.00 0.22 0.22 96 1009.2
20260906031039 79 349 0.0 0.0 0.00 0.22 0.22 95 1009.2
20260906030538 80 349 0.0 0.0 0.00 0.22 0.22 94 1009.1
20260906030037 80 349 0.0 0.0 0.00 0.22 0.22 94 1009.2
20260906025532 80 349 0.0 0.0 0.00 0.22 0.22 93 1009.2
20260906025030 80 349 0.0 0.0 0.00 0.22 0.22 92 1009.2
20260906024525 80 349 0.0 0.0 0.00 0.22 0.22 92 1009.3
20260906024020 80 349 0.0 0.0 0.00 0.22 0.22 93 1009.1
20260906023516 81 349 0.0 0.0 0.00 0.22 0.22 94 1009.4
20260906023010 81 349 0.0 0.0 0.00 0.22 0.22 94 1009.2
20260906022506 80 349 0.0 1.0 0.00 0.22 0.22 94 1009.2
20260906021955 80 349 1.0 1.0 0.00 0.22 0.22 92 1009.0
20260906021450 81 351 0.0 0.0 0.00 0.22 0.22 92 1008.9
20260906020944 81 351 0.0 0.0 0.00 0.22 0.22 91 1009.0
20260906020438 81 349 0.0 0.0 0.00 0.22 0.22 89 1009.0
20260906015933 81 348 0.0 0.0 0.00 0.22 0.22 89 1008.8
20260906015427 82 348 0.0 1.0 0.00 0.22 0.22 89 1008.7
20260906014927 82 348 1.0 1.0 0.00 0.22 0.22 89 1008.8
20260906014427 82 349 0.0 0.0 0.00 0.22 0.22 91 1008.5
20260906013923 82 349 0.0 0.0 0.00 0.22 0.22 90 1008.7
20260906013418 82 349 0.0 0.0 0.00 0.22 0.22 89 1008.8
20260906012914 83 349 0.0 0.0 0.00 0.22 0.22 91 1008.6
20260906012408 83 349 0.0 0.0 0.00 0.22 0.22 89 1008.5
20260906011908 83 349 0.0 0.0 0.00 0.22 0.22 87 1008.6
20260906011403 83 349 0.0 0.0 0.00 0.22 0.22 90 1008.7
20260906010858 83 349 0.0 0.0 0.00 0.22 0.22 90 1008.2
20260906010354 84 349 0.0 0.0 0.00 0.22 0.22 88 1008.5
20260906005850 84 348 0.0 0.0 0.00 0.22 0.22 88 1008.4
20260906005349 84 348 1.0 1.0 0.00 0.22 0.22 88 1008.1
20260906004848 84 350 0.0 0.0 0.00 0.22 0.22 90 1008.2
20260906004348 85 350 0.0 0.0 0.00 0.22 0.22 89 1008.2
20260906003843 85 350 0.0 0.0 0.00 0.22 0.22 87 1008.3
20260906003338 85 350 0.0 0.0 0.00 0.22 0.22 86 1008.1
20260906002834 86 350 0.0 0.0 0.00 0.22 0.22 86 1008.0
20260906002333 87 346 1.0 1.0 0.00 0.22 0.22 85 1008.2
20260906001829 87 334 0.0 0.0 0.00 0.22 0.22 82 1008.1
20260906001324 87 334 0.0 0.0 0.00 0.22 0.22 78 1008.4
20260906000819 87 334 0.0 0.0 0.00 0.22 0.22 80 1008.1
20260906000314 88 324 1.0 1.0 0.00 0.22 0.22 81 1008.1
20260905235809 89 87 0.0 0.0 0.00 0.22 0.22 83 1008.1
20260905235308 89 88 0.0 0.0 0.00 0.22 0.22 80 1008.3
20260905234804 89 88 0.0 1.0 0.00 0.22 0.22 81 1008.2
20260905234259 90 89 1.0 1.0 0.00 0.22 0.22 78 1008.2
20260905233754 91 66 0.0 1.0 0.00 0.22 0.22 81 1008.1
20260905233254 93 334 1.0 1.0 0.00 0.22 0.22 78 1008.2
20260905232753 93 333 1.0 1.0 0.00 0.22 0.22 72 1008.3
20260905232249 92 78 0.0 1.0 0.00 0.22 0.22 72 1008.3
20260905231745 92 79 1.0 1.0 0.00 0.22 0.22 77 1008.5
20260905231240 93 332 1.0 1.0 0.00 0.22 0.22 75 1008.4
20260905230736 93 327 1.0 1.0 0.00 0.22 0.22 71 1008.3
20260905230234 93 308 1.0 1.0 0.00 0.22 0.22 70 1008.2
20260905225733 93 317 1.0 1.0 0.00 0.22 0.22 71 1008.3
20260905225229 93 201 2.0 2.0 0.00 0.22 0.22 70 1008.3
20260905224728 93 187 2.0 3.0 0.00 0.22 0.22 67 1008.4
20260905224223 94 241 1.0 2.0 0.00 0.22 0.22 66 1008.4
20260905223719 93 334 1.0 1.0 0.00 0.22 0.22 73 1008.5
20260905223216 93 269 1.0 1.0 0.00 0.22 0.22 73 1008.6
20260905222712 92 238 2.0 2.0 0.00 0.22 0.22 74 1008.5
20260905222211 91 209 2.0 2.0 0.00 0.22 0.22 75 1008.3
20260905221706 91 205 2.0 3.0 0.00 0.22 0.22 74 1008.6
20260905221203 92 202 2.0 2.0 0.00 0.22 0.22 75 1008.4
20260905220659 92 193 1.0 1.0 0.00 0.22 0.22 70 1008.4
20260905220155 91 163 2.0 2.0 0.00 0.22 0.22 72 1008.5
20260905215654 91 311 1.0 1.0 0.00 0.22 0.22 72 1008.6
20260905215150 90 239 1.0 1.0 0.00 0.22 0.22 75 1008.5
20260905214646 89 182 3.0 3.0 0.00 0.22 0.22 76 1008.5
20260905214141 88 205 2.0 2.0 0.00 0.22 0.22 82 1008.6
20260905213637 84 270 2.0 2.0 0.00 0.22 0.22 81 1008.8
20260905213132 83 268 1.0 1.0 0.00 0.22 0.22 89 1008.9
20260905212627 82 308 1.0 1.0 0.00 0.22 0.22 93 1008.8
20260905212126 82 173 2.0 3.0 0.00 0.22 0.22 92 1008.7
20260905211621 80 317 2.0 2.0 0.00 0.22 0.22 92 1008.8
20260905211111 79 358 0.0 1.0 0.00 0.22 0.22 97 1008.8
20260905210608 78 352 1.0 1.0 0.00 0.22 0.22 95 1009.0
20260905205601 78 248 3.0 3.0 0.05 0.22 0.22 90 1009.1
20260905205100 78 184 2.0 3.0 0.05 0.22 0.22 90 1009.4
20260905204555 79 222 5.0 7.0 0.73 0.21 0.21 87 1009.3
20260905204050 76 214 16.0 18.0 1.21 0.20 0.20 82 1010.0
20260905203550 80 186 23.0 25.0 0.54 0.09 0.09 96 1010.3
20260905203045 95 2 6.0 9.0 0.00 0.00 0.00 53 1009.5
20260905202540 96 28 4.0 4.0 0.00 0.00 0.00 51 1009.4
20260905202036 98 32 2.0 4.0 0.00 0.00 0.00 49 1009.3
20260905201532 98 15 0.0 0.0 0.00 0.00 0.00 46 1009.3
20260905201031 98 150 2.0 2.0 0.00 0.00 0.00 48 1009.3
20260905200526 97 23 0.0 1.0 0.00 0.00 0.00 48 1009.7
20260905200020 97 81 3.0 3.0 0.00 0.00 0.00 47 1009.4
20260905195515 98 97 2.0 2.0 0.00 0.00 0.00 49 1009.5
20260905195010 98 37 2.0 3.0 0.00 0.00 0.00 47 1009.7
20260905194509 98 128 3.0 3.0 0.00 0.00 0.00 47 1009.4
20260905194004 101 138 4.0 8.0 0.00 0.00 0.00 46 1009.7
20260905193504 99 154 3.0 3.0 0.00 0.00 0.00 46 1010.0
20260905192959 100 136 4.0 4.0 0.00 0.00 0.00 47 1009.9
20260905192455 102 36 2.0 3.0 0.00 0.00 0.00 46 1009.9
20260905191951 100 72 0.0 1.0 0.00 0.00 0.00 47 1010.1
20260905191449 98 163 4.0 4.0 0.00 0.00 0.00 46 1010.1
20260905190943 98 141 2.0 2.0 0.00 0.00 0.00 47 1010.2
20260905190441 98 63 5.0 7.0 0.00 0.00 0.00 46 1010.3
20260905185940 97 45 3.0 4.0 0.00 0.00 0.00 48 1010.3
20260905185435 96 37 0.0 1.0 0.00 0.00 0.00 51 1010.5
20260905184933 96 93 2.0 2.0 0.00 0.00 0.00 56 1010.4
20260905184423 95 86 2.0 2.0 0.00 0.00 0.00 54 1010.4
20260905183922 95 48 2.0 3.0 0.00 0.00 0.00 55 1010.5
20260905183416 96 18 5.0 6.0 0.00 0.00 0.00 52 1010.7
20260905182911 96 69 5.0 7.0 0.00 0.00 0.00 52 1010.5
20260905182410 97 16 6.0 8.0 0.00 0.00 0.00 51 1010.6
20260905181906 97 22 4.0 6.0 0.00 0.00 0.00 50 1010.5
20260905181401 98 359 3.0 3.0 0.00 0.00 0.00 49 1010.6
20260905180900 99 184 4.0 6.0 0.00 0.00 0.00 45 1010.9
20260905180355 98 148 3.0 3.0 0.00 0.00 0.00 47 1010.8
20260905175850 98 167 2.0 2.0 0.00 0.00 0.00 49 1010.8
20260905175349 96 173 2.0 2.0 0.00 0.00 0.00 50 1011.0
20260905174844 96 124 1.0 2.0 0.00 0.00 0.00 50 1011.0
20260905174340 96 17 4.0 4.0 0.00 0.00 0.00 50 1010.9
20260905173831 97 56 2.0 3.0 0.00 0.00 0.00 51 1011.0
20260905173327 98 73 4.0 4.0 0.00 0.00 0.00 49 1011.0
20260905172827 99 53 8.0 9.0 0.00 0.00 0.00 48 1011.0
20260905172324 96 68 4.0 4.0 0.00 0.00 0.00 51 1011.0
20260905171821 96 114 4.0 6.0 0.00 0.00 0.00 52 1011.4
20260905171317 97 19 1.0 1.0 0.00 0.00 0.00 50 1011.1
20260905170814 96 352 3.0 3.0 0.00 0.00 0.00 52 1011.1
20260905170309 97 312 6.0 7.0 0.00 0.00 0.00 52 1011.3
20260905165807 97 197 2.0 3.0 0.00 0.00 0.00 50 1011.2
20260905165306 97 309 1.0 2.0 0.00 0.00 0.00 52 1011.3
20260905164757 97 0 2.0 3.0 0.00 0.00 0.00 51 1011.4
20260905164252 97 38 2.0 3.0 0.00 0.00 0.00 53 1011.7
20260905163748 97 19 3.0 3.0 0.00 0.00 0.00 52 1011.6
20260905163244 96 8 2.0 3.0 0.00 0.00 0.00 55 1011.6
20260905162740 96 356 4.0 4.0 0.00 0.00 0.00 54 1011.7
20260905162239 96 56 3.0 3.0 0.00 0.00 0.00 53 1011.6
20260905161734 96 7 3.0 4.0 0.00 0.00 0.00 55 1011.5
20260905161232 96 353 3.0 3.0 0.00 0.00 0.00 55 1011.8
20260905160731 95 39 0.0 1.0 0.00 0.00 0.00 56 1011.8
20260905160226 95 17 2.0 4.0 0.00 0.00 0.00 58 1012.0
20260905155726 95 14 2.0 3.0 0.00 0.00 0.00 58 1011.8
20260905155220 94 328 6.0 7.0 0.00 0.00 0.00 59 1011.8
20260905154713 95 4 2.0 3.0 0.00 0.00 0.00 59 1012.0
20260905154203 94 348 1.0 2.0 0.00 0.00 0.00 59 1011.8
20260905153659 93 2 1.0 1.0 0.00 0.00 0.00 59 1012.2
20260905153154 93 75 3.0 3.0 0.00 0.00 0.00 60 1011.9
20260905152649 93 335 3.0 3.0 0.00 0.00 0.00 62 1012.0
20260905152143 93 26 3.0 4.0 0.00 0.00 0.00 62 1011.9
20260905151638 92 51 1.0 2.0 0.00 0.00 0.00 61 1012.1
20260905151128 92 346 3.0 3.0 0.00 0.00 0.00 64 1012.1
20260905150624 92 7 0.0 1.0 0.00 0.00 0.00 64 1012.1
20260905150122 91 19 2.0 2.0 0.00 0.00 0.00 66 1012.0
20260905145621 91 325 3.0 3.0 0.00 0.00 0.00 68 1012.0
20260905145120 91 1 1.0 1.0 0.00 0.00 0.00 68 1012.1
20260905144620 92 347 1.0 2.0 0.00 0.00 0.00 66 1011.9
20260905144120 90 344 1.0 1.0 0.00 0.00 0.00 69 1011.9
20260905143620 89 353 1.0 1.0 0.00 0.00 0.00 71 1012.0
20260905143114 88 4 1.0 2.0 0.00 0.00 0.00 72 1011.9
20260905142614 88 24 2.0 2.0 0.00 0.00 0.00 72 1011.8
20260905142113 89 30 1.0 1.0 0.00 0.00 0.00 71 1011.9
20260905141613 87 36 0.0 0.0 0.00 0.00 0.00 72 1012.0
20260905141110 87 352 2.0 2.0 0.00 0.00 0.00 74 1012.0
20260905140605 86 233 1.0 1.0 0.00 0.00 0.00 76 1012.1
20260905140104 86 350 1.0 1.0 0.00 0.00 0.00 77 1011.9
20260905135559 86 249 0.0 1.0 0.00 0.00 0.00 76 1011.9
20260905135054 84 250 1.0 1.0 0.00 0.00 0.00 79 1011.8
20260905134548 84 250 1.0 2.0 0.00 0.00 0.00 81 1011.7
20260905134047 83 248 2.0 2.0 0.00 0.00 0.00 82 1012.0
20260905133542 82 248 2.0 3.0 0.00 0.00 0.00 83 1011.9
20260905133036 82 248 4.0 4.0 0.00 0.00 0.00 84 1011.8
20260905132531 81 273 2.0 3.0 0.00 0.00 0.00 85 1012.0
20260905132026 82 273 3.0 3.0 0.00 0.00 0.00 85 1011.9
20260905131521 81 323 0.0 1.0 0.00 0.00 0.00 84 1011.7
20260905131016 81 323 1.0 2.0 0.00 0.00 0.00 87 1011.7
20260905130515 80 323 0.0 0.0 0.00 0.00 0.00 87 1011.7
20260905130010 80 323 0.0 1.0 0.00 0.00 0.00 88 1011.8
20260905125459 80 323 0.0 0.0 0.00 0.00 0.00 89 1011.7
20260905124955 79 323 0.0 0.0 0.00 0.00 0.00 91 1011.8
20260905124451 78 323 0.0 0.0 0.00 0.00 0.00 92 1011.7
20260905123947 78 323 0.0 0.0 0.00 0.00 0.00 94 1011.7
20260905123443 76 323 0.0 0.0 0.00 0.00 0.00 96 1011.6
20260905122942 75 323 0.0 0.0 0.00 0.00 0.00 97 1011.4
20260905122437 74 323 0.0 0.0 0.00 0.00 0.00 98 1011.6
20260905121933 74 323 0.0 1.0 0.00 0.00 0.00 99 1011.5
20260905121428 73 323 0.0 0.0 0.00 0.00 0.00 99 1011.8
20260905120927 73 323 0.0 0.0 0.00 0.00 0.00 99 1011.7
20260905120422 73 323 0.0 0.0 0.00 0.00 0.00 99 1011.5